H1 CPF 2 NER 2022 1 7 9 007 01 glonass139 H2 1808601 9139 43687 2022 1 7 0 0 0 2022 1 10 23 45 0 900 1 1 0 0 0 1 H9 10 0 59586 0.00000 0 -20130364.747 7875591.642 13553706.641 10 0 59586 900.00000 0 -18683192.965 6765136.364 16006670.574 10 0 59586 1800.00000 0 -17119048.364 5354409.972 18148997.148 10 0 59586 2700.00000 0 -15500478.281 3653515.461 19939191.218 10 0 59586 3600.00000 0 -13888681.978 1685062.268 21342598.185 10 0 59586 4500.00000 0 -12340986.472 -516519.951 22332066.795 10 0 59586 5400.00000 0 -10908505.615 -2906163.803 22888466.904 10 0 59586 6300.00000 0 -9634079.272 -5429794.546 23001053.143 10 0 59586 7200.00000 0 -8550577.605 -8026341.573 22667668.218 10 0 59586 8100.00000 0 -7679640.078 -10630048.678 21894782.412 10 0 59586 9000.00000 0 -7030900.720 -13172988.488 20697368.757 10 0 59586 9900.00000 0 -6601731.123 -15587677.939 19098616.120 10 0 59586 10800.00000 0 -6377511.116 -17809687.484 17129485.349 10 0 59586 11700.00000 0 -6332415.302 -19780136.746 14828116.324 10 0 59586 12600.00000 0 -6430682.192 -21447973.649 12239096.596 10 0 59586 13500.00000 0 -6628312.534 -22771942.789 9412604.829 10 0 59586 14400.00000 0 -6875125.391 -23722161.352 6403444.789 10 0 59586 15300.00000 0 -7117085.389 -24281236.847 3269987.928 10 0 59586 16200.00000 0 -7298802.882 -24444879.820 73044.587 10 0 59586 17100.00000 0 -7366101.247 -24221985.718 -3125314.589 10 0 59586 18000.00000 0 -7268542.356 -23634182.111 -6262964.022 10 0 59586 18900.00000 0 -6961802.767 -22714860.050 -9278931.767 10 0 59586 19800.00000 0 -6409799.152 -21507729.968 -12114587.447 10 0 59586 20700.00000 0 -5586471.976 -20064962.680 -14714785.898 10 0 59586 21600.00000 0 -4477150.622 -18444993.538 -17028943.860 10 0 59586 22500.00000 0 -3079440.790 -16710082.018 -19012028.354 10 0 59586 23400.00000 0 -1403595.137 -14923729.348 -20625437.102 10 0 59586 24300.00000 0 527650.156 -13148062.688 -21837753.656 10 0 59586 25200.00000 0 2679767.696 -11441295.674 -22625362.376 10 0 59586 26100.00000 0 5007632.528 -9855371.869 -22972911.178 10 0 59586 27000.00000 0 7457168.549 -8433889.813 -22873613.000 10 0 59586 27900.00000 0 9967380.036 -7210396.405 -22329380.038 10 0 59586 28800.00000 0 12472684.251 -6207119.805 -21350788.024 10 0 59586 29700.00000 0 14905448.463 -5434194.442 -19956871.134 10 0 59586 30600.00000 0 17198625.965 -4889409.921 -18174751.306 10 0 59586 31500.00000 0 19288381.210 -4558493.554 -16039109.091 10 0 59586 32400.00000 0 21116594.613 -4415913.580 -13591506.230 10 0 59586 33300.00000 0 22633142.439 -4426168.158 -10879573.135 10 0 59586 34200.00000 0 23797856.406 -4545504.590 -7956077.329 10 0 59586 35100.00000 0 24582081.248 -4723994.949 -4877891.272 10 0 59586 36000.00000 0 24969765.275 -4907879.194 -1704880.153 10 0 59586 36900.00000 0 24958038.744 -5042075.487 1501268.035 10 0 59586 37800.00000 0 24557256.535 -5072750.477 4678246.698 10 0 59586 38700.00000 0 23790504.255 -4949839.808 7764345.095 10 0 59586 39600.00000 0 22692589.540 -4629411.520 10699648.772 10 0 59586 40500.00000 0 21308561.958 -4075771.829 13427202.345 10 0 59586 41400.00000 0 19691824.550 -3263223.885 15894111.979 10 0 59586 42300.00000 0 17901916.979 -2177405.046 18052566.285 10 0 59586 43200.00000 0 16002063.614 -816146.023 19860756.396 10 0 59586 44100.00000 0 14056589.228 810184.568 21283678.129 10 0 59586 45000.00000 0 12128310.145 2678865.115 22293801.584 10 0 59586 45900.00000 0 10276009.086 4755528.311 22871596.232 10 0 59586 46800.00000 0 8552098.150 6995362.129 23005902.283 10 0 59586 47700.00000 0 7000566.209 9344755.398 22694141.908 10 0 59586 48600.00000 0 5655295.010 11743320.627 21942366.792 10 0 59586 49500.00000 0 4538812.812 14126211.291 20765141.284 10 0 59586 50400.00000 0 3661536.408 16426638.438 19185263.313 10 0 59586 51300.00000 0 3021532.051 18578483.286 17233328.020 10 0 59586 52200.00000 0 2604804.439 20518898.280 14947141.854 10 0 59586 53100.00000 0 2386101.061 22190789.126 12370997.646 10 0 59586 54000.00000 0 2330197.709 23545075.050 9554823.789 10 0 59586 54900.00000 0 2393610.917 24542633.284 6553223.101 10 0 59586 55800.00000 0 2526665.057 25155846.528 3424419.382 10 0 59586 56700.00000 0 2675826.794 25369688.484 229131.541 10 0 59586 57600.00000 0 2786208.093 25182301.553 -2970603.108 10 0 59586 58500.00000 0 2804131.639 24605041.982 -6112633.484 10 0 59586 59400.00000 0 2679649.587 23661990.026 -9135903.708 10 0 59586 60300.00000 0 2368908.302 22388945.137 -11981642.588 10 0 59586 61200.00000 0 1836258.060 20831947.969 -14594509.949 10 0 59586 62100.00000 0 1056017.301 19045390.910 -16923677.071 10 0 59586 63000.00000 0 13815.471 17089796.178 -18923819.830 10 0 59586 63900.00000 0 -1292543.663 15029354.626 -20556004.769 10 0 59586 64800.00000 0 -2852736.228 12929328.317 -21788450.672 10 0 59586 65700.00000 0 -4644106.152 10853425.630 -22597150.649 10 0 59586 66600.00000 0 -6632380.367 8861258.747 -22966342.490 10 0 59586 67500.00000 0 -8772882.723 7005989.756 -22888818.108 10 0 59586 68400.00000 0 -11012197.055 5332263.546 -22366065.969 10 0 59586 69300.00000 0 -13290210.726 3874513.597 -21408243.626 10 0 59586 70200.00000 0 -15542453.990 2655710.978 -20033980.789 10 0 59586 71100.00000 0 -17702637.910 1686608.115 -18270016.572 10 0 59586 72000.00000 0 -19705284.938 965508.148 -16150677.856 10 0 59586 72900.00000 0 -21488342.279 478568.382 -13717208.840 10 0 59586 73800.00000 0 -22995668.660 200623.788 -11016964.785 10 0 59586 74700.00000 0 -24179290.226 96494.564 -8102485.874 10 0 59586 75600.00000 0 -25001331.024 122721.137 -5030469.515 10 0 59586 76500.00000 0 -25435537.128 229651.947 -1860661.534 10 0 59586 77400.00000 0 -25468330.646 363794.408 1345311.454 10 0 59586 78300.00000 0 -25099349.751 470328.336 4525145.144 10 0 59586 79200.00000 0 -24341452.643 495674.401 7617072.040 10 0 59586 80100.00000 0 -23220185.990 390008.050 10561063.120 10 0 59586 81000.00000 0 -21772740.980 109611.872 13299992.974 10 0 59586 81900.00000 0 -20046441.516 -381033.467 15780745.705 10 0 59586 82800.00000 0 -18096828.597 -1107508.311 17955240.234 10 0 59586 83700.00000 0 -15985421.502 -2084136.720 19781355.692 10 0 59586 84600.00000 0 -13777249.455 -3313148.460 21223739.666 10 0 59586 85500.00000 0 -11538256.686 -4784355.726 22254484.560 10 0 59587 0.00000 0 -9332688.699 -6475358.461 22853659.945 10 0 59587 900.00000 0 -7220566.523 -8352271.237 23009691.805 10 0 59587 1800.00000 0 -5255355.959 -10370939.864 22719581.390 10 0 59587 2700.00000 0 -3481923.499 -12478601.019 21988961.096 10 0 59587 3600.00000 0 -1934865.533 -14615914.709 20831985.575 10 0 59587 4500.00000 0 -637277.880 -16719286.998 19271060.506 10 0 59587 5400.00000 0 399984.155 -18723387.344 17336413.764 10 0 59587 6300.00000 0 1178525.461 -20563756.833 15065516.575 10 0 59587 7200.00000 0 1712102.175 -22179399.405 12502365.068 10 0 59587 8100.00000 0 2025797.756 -23515248.651 9696635.218 10 0 59587 9000.00000 0 2154719.148 -24524407.461 6702726.632 10 0 59587 9900.00000 0 2142268.170 -25170066.836 3578713.114 10 0 59587 10800.00000 0 2038061.236 -25427023.269 385219.766 10 0 59587 11700.00000 0 1895585.462 -25282730.554 -2815751.832 10 0 59587 12600.00000 0 1769690.494 -24737841.201 -5962027.491 10 0 59587 13500.00000 0 1714022.622 -23806213.943 -8992469.791 10 0 59587 14400.00000 0 1778510.342 -22514386.214 -11848169.103 10 0 59587 15300.00000 0 2007008.601 -20900532.987 -14473592.562 10 0 59587 16200.00000 0 2435202.356 -19012955.060 -16817668.220 10 0 59587 17100.00000 0 3088859.257 -16908159.614 -18834782.870 10 0 59587 18000.00000 0 3982506.517 -14648613.161 -20485673.711 10 0 59587 18900.00000 0 5118589.192 -12300260.676 -21738196.282 10 0 59587 19800.00000 0 6487146.765 -9929914.437 -22567953.604 10 0 59587 20700.00000 0 8066023.022 -7602621.632 -22958774.097 10 0 59587 21600.00000 0 9821601.747 -5379120.433 -22903029.011 10 0 59587 22500.00000 0 11710038.609 -3313490.462 -22401783.046 10 0 59587 23400.00000 0 13678938.529 -1451095.431 -21464775.178 10 0 59587 24300.00000 0 15669409.109 173096.721 -20110229.911 10 0 59587 25200.00000 0 17618404.635 1535746.735 -18364502.456 10 0 59587 26100.00000 0 19461262.772 2625879.293 -16261564.617 10 0 59587 27000.00000 0 21134327.757 3445090.978 -13842341.286 10 0 59587 27900.00000 0 22577550.093 4007223.577 -11153910.451 10 0 59587 28800.00000 0 23736953.451 4337517.823 -8248582.484 10 0 59587 29700.00000 0 24566865.060 4471284.843 -5182876.941 10 0 59587 30600.00000 0 25031815.750 4452152.877 -2016417.231 10 0 59587 31500.00000 0 25108029.695 4329964.838 1189234.633 10 0 59587 32400.00000 0 24784441.384 4158417.031 4371779.896 10 0 59587 33300.00000 0 24063197.289 3992540.153 7469397.516 10 0 59587 34200.00000 0 22959621.568 3886130.162 10421946.951 10 0 59587 35100.00000 0 21501647.758 3889238.499 13172135.567 10 0 59587 36000.00000 0 19728740.804 4045828.265 15666627.902 10 0 59587 36900.00000 0 17690355.103 4391695.668 17857075.362 10 0 59587 37800.00000 0 15443993.398 4952744.554 19701046.879 10 0 59587 38700.00000 0 13052947.679 5743686.783 21162843.257 10 0 59587 39600.00000 0 10583816.182 6767223.136 22214180.275 10 0 59587 40500.00000 0 8103899.389 8013739.314 22834728.350 10 0 59587 41400.00000 0 5678582.505 9461530.162 23012499.279 10 0 59587 42300.00000 0 3368812.187 11077543.200 22744073.352 10 0 59587 43200.00000 0 1228771.034 12818611.237 22034663.024 10 0 59587 44100.00000 0 -696154.997 14633123.549 20898012.134 10 0 59587 45000.00000 0 -2371033.130 16463066.952 19356132.546 10 0 59587 45900.00000 0 -3772596.766 18246352.776 17438882.887 10 0 59587 46800.00000 0 -4889965.661 19919333.707 15183396.839 10 0 59587 47700.00000 0 -5724844.215 21419406.304 12633371.231 10 0 59587 48600.00000 0 -6291190.495 22687591.121 9838226.821 10 0 59587 49500.00000 0 -6614370.487 23670982.892 6852157.083 10 0 59587 50400.00000 0 -6729833.547 24324968.184 3733082.815 10 0 59587 51300.00000 0 -6681365.181 24615117.283 541532.290 10 0 59587 52200.00000 0 -6518991.132 24518670.349 -2660531.627 10 0 59587 53100.00000 0 -6296621.536 24025554.628 -5810914.536 10 0 59587 54000.00000 0 -6069535.153 23138889.018 -8848400.202 10 0 59587 54900.00000 0 -5891810.582 21874953.758 -11713943.057 10 0 59587 55800.00000 0 -5813813.747 20262625.481 -14351819.776 10 0 59587 56700.00000 0 -5879848.774 18342300.388 -16710717.100 10 0 59587 57600.00000 0 -6126072.487 16164349.823 -18744734.334 10 0 59587 58500.00000 0 -6578761.710 13787172.289 -20414280.592 10 0 59587 59400.00000 0 -7253007.618 11274922.858 -21686849.112 10 0 59587 60300.00000 0 -8151893.413 8695014.398 -22537653.439 10 0 59587 61200.00000 0 -9266191.115 6115494.706 -22950112.918 10 0 59587 62100.00000 0 -10574591.361 3602408.626 -22916178.060 10 0 59587 63000.00000 0 -12044457.665 1217254.812 -22436489.353 10 0 59587 63900.00000 0 -13633074.278 -985357.118 -21520366.333 10 0 59587 64800.00000 0 -15289336.081 -2959751.912 -20185627.012 10 0 59587 65700.00000 0 -16955810.086 -4670851.794 -18458241.004 10 0 59587 66600.00000 0 -18571082.323 -6095388.687 -16371822.973 10 0 59587 67500.00000 0 -20072291.686 -7222615.945 -13966976.146 10 0 59587 68400.00000 0 -21397744.240 -8054491.014 -11290498.655 10 0 59587 69300.00000 0 -22489497.852 -8605322.751 -8394468.339 10 0 59587 70200.00000 0 -23295808.175 -8900899.828 -5335224.114 10 0 59587 71100.00000 0 -23773332.750 -8977138.541 -2172264.175 10 0 59587 72000.00000 0 -23889000.183 -8878308.690 1032916.852 10 0 59587 72900.00000 0 -23621465.564 -8654914.009 4218028.511 10 0 59587 73800.00000 0 -22962090.835 -8361318.150 7321198.905 10 0 59587 74700.00000 0 -21915409.000 -8053217.756 10282178.565 10 0 59587 75600.00000 0 -20499052.885 -7785070.403 13043510.094 10 0 59587 76500.00000 0 -18743151.690 -7607586.754 15551640.730 10 0 59587 77400.00000 0 -16689220.947 -7565393.152 17757956.352 10 0 59587 78300.00000 0 -14388592.464 -7694963.403 19619717.353 10 0 59587 79200.00000 0 -11900449.841 -8022906.803 21100879.012 10 0 59587 80100.00000 0 -9289551.244 -8564684.305 22172781.294 10 0 59587 81000.00000 0 -6623733.753 -9323806.636 22814695.792 10 0 59587 81900.00000 0 -3971302.148 -10291548.032 23014220.144 10 0 59587 82800.00000 0 -1398409.632 -11447187.746 22767513.121 10 0 59587 83700.00000 0 1033462.116 -12758769.657 22079366.383 10 0 59587 84600.00000 0 3269820.427 -14184348.884 20963111.789 10 0 59587 85500.00000 0 5265181.812 -15673674.076 19440365.946 10 0 59588 0.00000 0 6984712.194 -17170235.946 17540616.737 10 0 59588 900.00000 0 8405421.171 -18613598.146 15300658.039 10 0 59588 1800.00000 0 9516859.349 -19941911.861 12763885.417 10 0 59588 2700.00000 0 10321293.686 -21094512.257 9979462.080 10 0 59588 3600.00000 0 10833351.881 -22014486.416 7001372.868 10 0 59588 4500.00000 0 11079152.226 -22651105.949 3887382.948 10 0 59588 5400.00000 0 11094955.756 -22962021.850 697921.061 10 0 59588 6300.00000 0 10925397.815 -22915128.793 -2505091.360 10 0 59588 7200.00000 0 10621373.877 -22490019.648 -5659442.378 10 0 59588 8100.00000 0 10237669.273 -21678968.043 -8703839.531 10 0 59588 9000.00000 0 9830433.389 -20487396.362 -11579103.783 10 0 59588 9900.00000 0 9454605.621 -18933808.336 -14229323.656 10 0 59588 10800.00000 0 9161402.573 -17049187.745 -16602946.691 10 0 59588 11700.00000 0 8995973.408 -14875887.314 -18653786.574 10 0 59588 12600.00000 0 8995323.227 -12466053.360 -20341925.909 10 0 59588 13500.00000 0 9186593.023 -9879651.220 -21634496.868 10 0 59588 14400.00000 0 9585769.665 -7182173.251 -22506324.363 10 0 59588 15300.00000 0 10196881.161 -4442124.539 -22940419.089 10 0 59588 16200.00000 0 11011711.986 -1728390.694 -22928310.839 10 0 59588 17100.00000 0 12010051.257 892403.076 -22470215.514 10 0 59588 18000.00000 0 13160463.997 3358431.887 -21575032.468 10 0 59588 18900.00000 0 14421553.663 5615004.812 -20260172.160 10 0 59588 19800.00000 0 15743663.253 7616595.523 -18551217.243 10 0 59588 20700.00000 0 17070943.697 9328485.864 -16481423.586 10 0 59588 21600.00000 0 18343702.561 10727954.636 -14091070.821 10 0 59588 22500.00000 0 19500934.110 11804962.956 -11426675.021 10 0 59588 23400.00000 0 20482923.898 12562308.694 -8540079.027 10 0 59588 24300.00000 0 21233817.780 13015245.022 -5487438.412 10 0 59588 25200.00000 0 21704046.657 13190580.683 -2328123.275 10 0 59588 26100.00000 0 21852504.297 13125301.510 876442.126 10 0 59588 27000.00000 0 21648386.087 12864772.983 4063978.626 10 0 59588 27900.00000 0 21072610.971 12460601.206 7172566.380 10 0 59588 28800.00000 0 20118766.541 11968243.980 10141849.741 10 0 59588 29700.00000 0 18793537.508 11444473.957 12914209.074 10 0 59588 30600.00000 0 17116599.546 10944801.775 15435876.584 10 0 59588 31500.00000 0 15119983.048 10520968.363 17657974.598 10 0 59588 32400.00000 0 12846933.411 10218612.296 19537456.664 10 0 59588 33300.00000 0 10350315.302 10075210.337 21037933.919 10 0 59588 34200.00000 0 7690627.187 10118377.497 22130371.602 10 0 59588 35100.00000 0 4933708.209 10364597.671 22793643.219 10 0 59588 36000.00000 0 2148231.876 10818437.796 23014932.634 10 0 59588 36900.00000 0 -596910.353 11472278.250 22789977.060 10 0 59588 37800.00000 0 -3235228.324 12306570.800 22123146.897 10 0 59588 38700.00000 0 -5705148.076 13290613.525 21027361.082 10 0 59588 39600.00000 0 -7952319.396 14383810.755 19523839.561 10 0 59588 40500.00000 0 -9931621.696 15537365.936 17641697.252 10 0 59588 41400.00000 0 -11608786.182 16696337.346 15417386.685 10 0 59588 42300.00000 0 -12961567.855 17801971.264 12893999.307 10 0 59588 43200.00000 0 -13980419.488 18794215.469 10120438.025 10 0 59588 44100.00000 0 -14668640.140 19614308.074 7150476.151 10 0 59588 45000.00000 0 -15041992.538 20207333.101 4041720.272 10 0 59588 45900.00000 0 -15127805.805 20524635.261 854496.629 10 0 59588 46800.00000 0 -14963601.601 20525991.832 -2349317.704 10 0 59588 47700.00000 0 -14595301.789 20181449.435 -5507496.101 10 0 59588 48600.00000 0 -14075093.492 19472747.291 -8558672.610 10 0 59588 49500.00000 0 -13459042.017 18394265.765 -11443537.288 10 0 59588 50400.00000 0 -12804552.830 16953458.889 -14105992.853 10 0 59588 51300.00000 0 -12167790.296 15170751.247 -16494249.721 10 0 59588 52200.00000 0 -11601162.737 13078902.078 -18561837.722 10 0 59588 53100.00000 0 -11150980.620 10721862.013 -20268514.382 10 0 59588 54000.00000 0 -10855387.302 8153169.070 -21581051.871 10 0 59588 54900.00000 0 -10742650.242 5433949.950 -22473887.183 10 0 59588 55800.00000 0 -10829885.318 2630609.273 -22929622.713 10 0 59588 56700.00000 0 -11122268.517 -187697.595 -22939367.503 10 0 59588 57600.00000 0 -11612768.733 -2951703.416 -22502912.430 10 0 59588 58500.00000 0 -12282413.309 -5594670.193 -21628735.833 10 0 59588 59400.00000 0 -13101075.464 -8054922.989 -20333839.357 10 0 59588 60300.00000 0 -14028750.671 -10278171.468 -18643417.047 10 0 59588 61200.00000 0 -15017268.279 -12219522.820 -16590363.975 10 0 59588 62100.00000 0 -16012366.186 -13845102.830 -14214633.878 10 0 59588 63000.00000 0 -16956040.910 -15133218.220 -11562458.245 10 0 59588 63900.00000 0 -17789073.542 -16075012.606 -8685442.255 10 0 59588 64800.00000 0 -18453624.550 -16674589.872 -5639555.412 10 0 59588 65700.00000 0 -18895787.373 -16948601.199 -2484036.963 10 0 59588 66600.00000 0 -19067992.424 -16925314.621 719761.934 10 0 59588 67500.00000 0 -18931159.528 -16643207.942 3909576.114 10 0 59588 68400.00000 0 -18456507.509 -16149145.839 7023440.430 10 0 59588 69300.00000 0 -17626944.280 -15496219.505 10000895.644 10 0 59588 70200.00000 0 -16437978.668 -14741341.148 12784162.343 10 0 59588 71100.00000 0 -14898115.406 -13942695.748 15319259.996 10 0 59588 72000.00000 0 -13028716.616 -13157158.074 17557049.454 10 0 59588 72900.00000 0 -10863335.404 -12437783.976 19454179.183 10 0 59588 73800.00000 0 -8446549.117 -11831481.437 20973917.597 10 0 59588 74700.00000 0 -5832340.622 -11376958.912 22086856.220 10 0 59588 75600.00000 0 -3082094.339 -11103036.553 22771471.076 10 0 59588 76500.00000 0 -262289.499 -11027390.553 23014532.428 10 0 59588 77400.00000 0 2558014.565 -11155782.661 22811355.725 10 0 59588 78300.00000 0 5309798.081 -11481806.715 22165889.529 10 0 59588 79200.00000 0 7926698.183 -11987162.590 21090638.958 10 0 59588 80100.00000 0 10347516.763 -12642446.106 19606426.092 10 0 59588 81000.00000 0 12518516.171 -13408422.087 17741991.595 10 0 59588 81900.00000 0 14395408.748 -14237727.665 15533444.553 10 0 59588 82800.00000 0 15944958.431 -15076934.918 13023570.408 10 0 59588 83700.00000 0 17146128.698 -15868886.847 10261009.449 10 0 59588 84600.00000 0 17990729.621 -16555208.931 7299320.856 10 0 59588 85500.00000 0 18483537.431 -17078890.889 4195949.798 10 0 59589 0.00000 0 18641881.963 -17386829.882 1011117.294 10 0 59589 900.00000 0 18494719.599 -17432227.790 -2193347.627 10 0 59589 1800.00000 0 18081230.697 -17176740.444 -5355206.467 10 0 59589 2700.00000 0 17449001.085 -16592287.782 -8413022.790 10 0 59589 3600.00000 0 16651864.189 -15662446.901 -11307358.574 10 0 59589 4500.00000 0 15747495.238 -14383368.073 -13981933.313 10 0 59589 5400.00000 0 14794859.364 -12764173.588 -16384722.597 10 0 59589 6300.00000 0 13851621.650 -10826821.024 -18468974.382 10 0 59589 7200.00000 0 12971628.804 -8605435.172 -20194122.732 10 0 59589 8100.00000 0 12202569.065 -6145135.146 -21526581.062 10 0 59589 9000.00000 0 11583909.340 -3500404.427 -22440399.272 10 0 59589 9900.00000 0 11145196.851 -733070.875 -22917771.845 10 0 59589 10800.00000 0 10904797.064 2090019.954 -22949387.033 10 0 59589 11700.00000 0 10869121.205 4899542.018 -22534610.228 10 0 59589 12600.00000 0 11032376.037 7626331.346 -21681497.896 10 0 59589 13500.00000 0 11376846.393 10204024.437 -20406641.661 10 0 59589 14400.00000 0 11873698.505 12571583.086 -18734845.419 10 0 59589 15300.00000 0 12484270.082 14675600.753 -16698641.607 10 0 59589 16200.00000 0 13161792.417 16472294.831 -14337655.950 10 0 59589 17100.00000 0 13853471.476 17929102.224 -11697832.989 10 0 59589 18000.00000 0 14502839.571 19025812.236 -8830537.628 10 0 59589 18900.00000 0 15052277.674 19755190.314 -5791550.489 10 0 59589 19800.00000 0 15445601.107 20123067.656 -2639977.007 10 0 59589 20700.00000 0 15630598.649 20147894.229 562907.796 10 0 59589 21600.00000 0 15561417.085 19859775.458 3754855.764 10 0 59589 22500.00000 0 15200689.851 19299034.655 6873859.377 10 0 59589 23400.00000 0 14521319.431 18514363.123 9859358.529 10 0 59589 24300.00000 0 13507837.925 17560637.189 12653416.535 10 0 59589 25200.00000 0 12157288.149 16496495.120 15201842.347 10 0 59589 26100.00000 0 10479587.968 15381776.644 17455237.271 10 0 59589 27000.00000 0 8497362.276 14274933.158 19369946.330 10 0 59589 27900.00000 0 6245249.235 13230517.412 20908896.560 10 0 59589 28800.00000 0 3768709.331 12296857.744 22042306.806 10 0 59589 29700.00000 0 1122386.193 11514013.763 22748256.325 10 0 59589 30600.00000 0 -1631913.529 10912098.365 23013102.147 10 0 59589 31500.00000 0 -4427538.266 10510035.488 22831737.932 10 0 59589 32400.00000 0 -7195512.666 10314804.807 22207689.947 10 0 59589 33300.00000 0 -9867158.599 10321204.305 21153048.578 10 0 59589 34200.00000 0 -12376708.590 10512140.261 19688236.665 10 0 59589 35100.00000 0 -14663804.676 10859432.287 17841618.774 10 0 59589 36000.00000 0 -16675780.181 11325099.737 15648958.303 10 0 59589 36900.00000 0 -18369630.518 11863075.736 13152732.104 10 0 59589 37800.00000 0 -19713591.866 12421277.175 10401315.013 10 0 59589 38700.00000 0 -20688262.474 12943943.934 7448049.111 10 0 59589 39600.00000 0 -21287220.108 13374149.070 4350215.107 10 0 59589 40500.00000 0 -21517110.039 13656374.205 1167925.198 10 0 59589 41400.00000 0 -21397199.992 13739041.219 -2037041.443 10 0 59589 42300.00000 0 -20958420.753 13576892.876 -5202437.891 10 0 59589 43200.00000 0 -20241932.871 13133120.998 -8266759.971 10 0 59589 44100.00000 0 -19297279.811 12381151.226 -11170444.184 10 0 59589 45000.00000 0 -18180205.513 11306007.700 -13857029.202 10 0 59589 45900.00000 0 -16950228.512 9905198.585 -16274257.942 10 0 59589 46800.00000 0 -15668075.044 8189083.479 -18375098.320 10 0 59589 47700.00000 0 -14393079.586 6180705.624 -20118662.422 10 0 59589 48600.00000 0 -13180662.529 3915094.314 -21471005.985 10 0 59589 49500.00000 0 -12079991.362 1438065.168 -22405792.469 10 0 59589 50400.00000 0 -11131923.960 -1195432.836 -22904808.679 10 0 59589 51300.00000 0 -10367320.500 -3923355.738 -22958321.870 10 0 59589 52200.00000 0 -9805794.965 -6678904.320 -22565271.332 10 0 59589 53100.00000 0 -9454958.582 -9393068.325 -21733290.629 10 0 59589 54000.00000 0 -9310186.742 -11997269.791 -20478559.950 10 0 59589 54900.00000 0 -9354918.829 -14425995.816 -18825491.271 10 0 59589 55800.00000 0 -9561477.846 -16619311.297 -16806252.334 10 0 59589 56700.00000 0 -9892374.702 -18525147.204 -14460138.549 10 0 59589 57600.00000 0 -10302041.459 -20101269.239 -11832805.039 10 0 59589 58500.00000 0 -10738919.621 -21316844.998 -8975373.887 10 0 59589 59400.00000 0 -11147814.370 -22153544.718 -5943434.260 10 0 59589 60300.00000 0 -11472414.406 -22606130.312 -2795955.243 10 0 59589 61200.00000 0 -11657869.925 -22682508.964 405866.768 10 0 59589 62100.00000 0 -11653318.905 -22403250.250 3599803.065 10 0 59589 63000.00000 0 -11414254.114 -21800588.415 6723806.122 10 0 59589 63900.00000 0 -10904630.178 -20916953.076 9717217.283 10 0 59589 64800.00000 0 -10098621.236 -19803091.460 12521944.824 10 0 59589 65700.00000 0 -8981954.606 -18515862.224 15083589.307 10 0 59589 66600.00000 0 -7552763.991 -17115794.423 17352494.457 10 0 59589 67500.00000 0 -5821926.016 -15664514.634 19284703.612 10 0 59589 68400.00000 0 -3812865.516 -14222150.290 20842803.912 10 0 59589 69300.00000 0 -1560837.277 -12844817.801 21996642.696 10 0 59589 70200.00000 0 888286.517 -11582300.059 22723903.287 10 0 59589 71100.00000 0 3479673.518 -10476009.579 23010529.958 10 0 59589 72000.00000 0 6151565.162 -9557321.476 22850994.711 10 0 59589 72900.00000 0 8837604.107 -8846344.861 22248401.315 10 0 59589 73800.00000 0 11469359.891 -8351182.998 21214424.899 10 0 59589 74700.00000 0 13978949.283 -8067712.337 19769088.232 10 0 59589 75600.00000 0 16301643.948 -7979889.042 17940378.664 10 0 59589 76500.00000 0 18378358.327 -8060569.789 15763712.464 10 0 59589 77400.00000 0 20157915.228 -8272812.257 13281256.161 10 0 59589 78300.00000 0 21598995.654 -8571600.743 10541117.055 10 0 59589 79200.00000 0 22671692.054 -8905924.415 7596417.714 10 0 59589 80100.00000 0 23358600.390 -9221120.802 4504271.659 10 0 59589 81000.00000 0 23655405.431 -9461385.709 1324679.555 10 0 59589 81900.00000 0 23570934.676 -9572343.430 -1880633.040 10 0 59589 82800.00000 0 23126678.500 -9503568.269 -5049413.753 10 0 59589 83700.00000 0 22355796.502 -9210950.136 -8120093.907 10 0 59589 84600.00000 0 21301651.718 -8658803.240 -11032987.603 10 0 59589 85500.00000 0 20015934.274 -7821627.606 -13731455.541 99